Regional Weather Roundup
Issued by NWS Sioux Falls, SD

Home | Current Version | Previous Version | Text Only | Print | Product List | Glossary On
Versions: 1 2 3 4 5 6 7 8 9 10 11 12 13 14 15 16 17 18 19 20 21 22 23 24 25 26 27 28 29 30 31 32 33 34 35 36 37 38 39 40 41 42 43 44 45 46 47 48 49 50
000
ASUS43 KFSD 241410
RWRFSD

WEATHER ROUNDUP FOR SE SOUTH DAKOTA/SW MINNESOTA/NW IOWA
NATIONAL WEATHER SERVICE SIOUX FALLS SD
900 AM CDT WED AUG 24 2016

NOTE: "FAIR" INDICATES FEW OR NO CLOUDS BELOW 12,000 FEET WITH NO
SIGNIFICANT WEATHER AND OR OBSTRUCTIONS TO VISIBILITY.


SDZ038>040-050-052>070-241500-
SOUTHEAST SOUTH DAKOTA

CITY           SKY/WX    TMP DP  RH WIND       PRES   REMARKS
BROOKINGS      SUNNY     63  56  78 NW10      29.98R
CHAMBERLAIN    MOSUNNY   61  50  66 NW5       30.06R
HURON          SUNNY     62  49  62 NW13      30.00R
MADISON        FAIR      61  59  94 NW13      30.00R
MITCHELL       SUNNY     61  51  70 CALM      30.01R
SIOUX FALLS    CLOUDY    67  57  70 W3        29.98R
WINNER         FAIR      60  45  57 NW10      30.09R
YANKTON        CLOUDY    61  48  63 NW9       29.99S
$$

MNZ071-072-080-081-089-090-097-098-241500-
SOUTHWEST MINNESOTA

CITY           SKY/WX    TMP DP  RH WIND       PRES   REMARKS
FAIRMONT         N/A    N/A N/A N/A MISG        N/A
JACKSON        SUNNY     68  59  73 NW9       29.96R
LUVERNE        CLOUDY    64  55  72 W3        29.98R
MARSHALL       SUNNY     67  54  63 NW12      29.95R
MONTEVIDEO     SUNNY     70  63  78 N7        29.95R
REDWOOD FALLS  SUNNY     67  61  81 NW6       29.91R
TRACY          SUNNY     68  58  71 NW7       29.96R
WINDOM         SUNNY     68  59  73 NW12G17   29.94R
WORTHINGTON    SUNNY     67  59  75 NW8       29.97R
$$

IAZ001>003-012>014-020>022-031-032-NEZ013-014-SDZ071-241500-
NORTHWEST IOWA

CITY           SKY/WX    TMP DP  RH WIND       PRES   REMARKS
CHEROKEE       PTSUNNY   70  65  85 N8        29.96R
DENISON        CLOUDY    70  68  94 NW7       29.93S FOG
ESTHERVILLE    PTSUNNY   67  62  84 NW13      29.94R
LE MARS        CLOUDY    68  59  73 NW5       29.98R
ORANGE CITY    CLOUDY    64  59  82 NW7       29.97R
SHELDON        CLOUDY    66  61  82 NW9       29.95S
SIOUX CITY     CLOUDY    68  59  73 NW7       29.98R
SPENCER        CLOUDY    69  61  75 NW10      29.95R
STORM LAKE     CLOUDY    72  68  88 NW13      29.95S
$$

ABBREVIATIONS USED IN REMARKS
   TC - TEMPERATURE IN CELSIUS
  WCI - WIND CHILL INDEX
   HX - HEAT INDEX
  VSB - VISIBILITY





USA.gov is the U.S. government's official web portal to all federal, state and local government web resources and services.